DW8947 Weather Reports


time (UTC)temp
C
wind
direction
speed
KPH
gust
KPH
rain 1hr
cm
rain 24hr
cm
rain mn
cm
humidity
%
barometer
mb
20260901161704 15 178 0.0 0.0 0.00 0.00 0.00 88 1008.1
20260901161205 15 168 0.0 0.0 0.00 0.00 0.00 88 1008.1
20260901155704 15 165 0.0 0.0 0.00 0.00 0.00 89 1008.1
20260901155205 15 162 0.0 0.0 0.00 0.00 0.00 89 1008.2
20260901154204 15 164 0.0 0.0 0.00 0.00 0.00 90 1008.2
20260901153705 15 160 0.0 0.0 0.00 0.00 0.00 90 1008.3
20260901152704 15 165 0.0 0.0 0.00 0.00 0.00 90 1008.3
20260901152205 15 165 0.0 0.0 0.00 0.00 0.00 90 1008.3
20260901151705 15 121 0.0 0.0 0.00 0.00 0.00 90 1008.3
20260901151204 15 121 0.0 0.0 0.00 0.00 0.00 90 1008.3
20260901150204 15 110 0.0 0.0 0.00 0.00 0.00 91 1008.2
20260901145704 14 110 0.0 0.0 0.00 0.00 0.00 91 1008.2
20260901144704 14 110 0.0 0.0 0.00 0.00 0.00 91 1008.1
20260901142204 13 110 0.0 0.0 0.00 0.00 0.00 91 1008.1
20260901141704 13 110 0.0 0.0 0.00 0.00 0.00 91 1008.1
20260901140705 13 110 0.0 0.0 0.00 0.00 0.00 91 1008.1
20260901140204 13 110 0.0 0.0 0.00 0.00 0.00 90 1008.1
20260901135204 13 110 0.0 0.0 0.00 0.00 0.00 89 1008.0
20260901134205 13 110 0.0 0.0 0.00 0.00 0.00 89 1007.9
20260901132704 13 110 0.0 0.0 0.00 0.00 0.00 89 1007.8
20260901131704 13 110 0.0 0.0 0.00 0.00 0.00 88 1007.7
20260901125205 13 110 0.0 0.0 0.00 0.00 0.00 87 1007.5
20260901124705 13 110 0.0 0.0 0.00 0.00 0.00 87 1007.4
20260901124204 13 110 0.0 0.0 0.00 0.00 0.00 87 1007.4
20260901123704 13 110 0.0 0.0 0.00 0.00 0.00 87 1007.4
20260901121704 13 110 0.0 0.0 0.00 0.00 0.00 86 1007.3
20260901121204 13 110 0.0 0.0 0.00 0.00 0.00 87 1007.3
20260901120704 13 110 0.0 0.0 0.00 0.00 0.00 87 1007.2
20260901113704 13 110 0.0 0.0 0.00 0.00 0.00 86 1007.3
20260901113205 13 110 0.0 0.0 0.00 0.00 0.00 86 1007.3
20260901112204 13 110 0.0 0.0 0.00 0.00 0.00 85 1007.3
20260901111204 13 110 0.0 0.0 0.00 0.00 0.00 86 1007.4
20260901110205 13 110 0.0 0.0 0.00 0.00 0.00 86 1007.3
20260901105704 13 110 0.0 0.0 0.00 0.00 0.00 85 1007.3
20260901105204 13 110 0.0 0.0 0.00 0.00 0.00 85 1007.3
20260901104704 13 110 0.0 0.0 0.00 0.00 0.00 85 1007.3
20260901104204 13 110 0.0 0.0 0.00 0.00 0.00 86 1007.4
20260901103704 13 110 0.0 0.0 0.00 0.00 0.00 85 1007.4
20260901103204 13 110 0.0 0.0 0.00 0.00 0.00 85 1007.4
20260901102704 13 110 0.0 0.0 0.00 0.00 0.00 86 1007.4
20260901102204 13 110 0.0 0.0 0.00 0.00 0.00 86 1007.4
20260901101205 13 110 0.0 0.0 0.00 0.00 0.00 86 1007.4
20260901095705 13 110 0.0 0.0 0.00 0.00 0.00 86 1007.2
20260901095204 13 110 0.0 0.0 0.00 0.00 0.00 86 1007.2
20260901094705 13 110 0.0 0.0 0.00 0.00 0.00 85 1007.2
20260901093704 13 110 0.0 0.0 0.00 0.00 0.00 85 1007.1
20260901091205 13 110 0.0 0.0 0.00 0.00 0.00 86 1007.3
20260901084704 13 110 0.0 0.0 0.00 0.00 0.00 82 1007.1
20260901084204 13 110 0.0 0.0 0.00 0.00 0.00 82 1007.1
20260901083204 14 110 0.0 0.0 0.00 0.00 0.00 82 1007.0
20260901082704 14 110 0.0 0.0 0.00 0.00 0.00 82 1007.0
20260901075704 14 136 0.0 0.0 0.00 0.00 0.00 83 1006.9
20260901075205 14 107 0.0 0.0 0.00 0.00 0.00 83 1006.9
20260901074704 14 156 0.0 0.0 0.00 0.00 0.00 83 1006.8
20260901074204 14 98 0.0 0.0 0.00 0.00 0.00 82 1006.8
20260901073205 15 93 0.0 0.0 0.00 0.00 0.00 82 1006.8
20260901072704 15 93 0.0 0.0 0.00 0.00 0.00 82 1006.9
20260901072204 15 93 0.0 0.0 0.00 0.00 0.00 81 1006.9
20260901070705 15 93 0.0 0.0 0.00 0.00 0.00 78 1006.7
20260901070205 15 93 0.0 0.0 0.00 0.00 0.00 78 1006.7
20260901065204 15 93 0.0 0.0 0.00 0.00 0.00 79 1006.8
20260901064704 15 93 0.0 0.0 0.00 0.00 0.00 78 1006.8
20260901064204 15 93 0.0 0.0 0.00 0.00 0.00 76 1006.8
20260901063704 16 93 0.0 0.0 0.00 0.00 0.00 76 1006.9
20260901061205 16 93 0.0 0.0 0.00 0.00 0.00 77 1006.8
20260901055204 16 97 0.0 0.0 0.00 0.00 0.00 77 1006.9
20260901054204 16 66 0.0 0.0 0.00 0.00 0.00 76 1007.1
20260901053204 16 113 0.0 0.0 0.00 0.00 0.00 77 1007.2
20260901052704 16 113 0.0 0.0 0.00 0.00 0.00 76 1007.2
20260901052205 16 110 0.0 0.0 0.00 0.00 0.00 75 1007.2
20260901051204 16 125 0.0 0.0 0.00 0.00 0.00 75 1007.2
20260901044704 16 125 0.0 0.0 0.00 0.00 0.00 73 1007.4
20260901044204 16 125 0.0 3.2 0.00 0.00 0.00 73 1007.3
20260901042704 17 125 0.0 0.0 0.00 0.00 0.00 72 1007.3
20260901041704 17 86 0.0 1.6 0.00 0.00 0.00 73 1007.3
20260901041204 17 197 0.0 3.2 0.00 0.00 0.00 72 1007.3
20260901040704 17 197 0.0 1.6 0.00 0.00 0.00 71 1007.2
20260901035704 17 122 0.0 1.6 0.00 0.00 0.00 71 1007.2
20260901034204 17 120 0.0 3.2 0.00 0.00 0.00 73 1006.9
20260901032204 18 115 0.0 3.2 0.00 0.00 0.00 71 1006.7
20260901031704 18 115 0.0 1.6 0.00 0.00 0.00 70 1006.7
20260901031204 18 115 0.0 3.2 0.00 0.00 0.00 69 1006.7
20260901030704 18 115 0.0 3.2 0.00 0.00 0.00 69 1006.6
20260901030204 18 115 0.0 3.2 0.00 0.00 0.00 70 1006.6
20260901025204 19 161 0.0 3.2 0.00 0.00 0.00 66 1006.7
20260901024704 19 161 0.0 3.2 0.00 0.00 0.00 67 1006.7
20260901023704 19 192 0.0 3.2 0.00 0.00 0.00 69 1006.7
20260901023204 19 192 0.0 1.6 0.00 0.00 0.00 69 1006.7
20260901022204 19 215 0.0 3.2 0.00 0.00 0.00 68 1006.8
20260901020704 20 17 0.0 3.2 0.00 0.00 0.00 67 1006.8
20260901020204 20 171 0.0 3.2 0.00 0.00 0.00 66 1006.9
20260901015704 20 149 1.6 3.2 0.00 0.00 0.00 65 1006.8
20260901014705 20 16 1.6 4.8 0.00 0.00 0.00 65 1006.8
20260901014204 20 224 1.6 3.2 0.00 0.00 0.00 64 1006.9
20260901011204 21 311 0.0 3.2 0.00 0.00 0.00 61 1007.0
20260901004705 21 350 0.0 3.2 0.00 0.00 0.00 62 1007.0
20260901004204 21 305 0.0 4.8 0.00 0.00 0.00 63 1007.1
20260901003705 21 332 1.6 4.8 0.00 0.00 0.00 59 1007.1
20260901003204 21 32 1.6 3.2 0.00 0.00 0.00 59 1007.1
20260901000205 21 288 1.6 4.8 0.00 0.00 0.00 57 1007.2
20260831235204 21 10 1.6 9.7 0.00 0.00 0.00 57 1007.3
20260831233704 21 240 1.6 3.2 0.00 0.00 0.00 57 1007.4
20260831233204 21 339 1.6 3.2 0.00 0.00 0.00 59 1007.5
20260831232704 21 107 1.6 3.2 0.00 0.00 0.00 60 1007.6
20260831232204 21 177 0.0 3.2 0.00 0.00 0.00 61 1007.5
20260831231704 21 40 1.6 4.8 0.00 0.00 0.00 60 1007.7
20260831225704 21 154 1.6 4.8 0.00 0.00 0.00 57 1007.8
20260831225204 21 313 1.6 4.8 0.00 0.00 0.00 61 1007.9
20260831222204 21 326 1.6 3.2 0.00 0.00 0.00 59 1008.2
20260831220204 21 331 1.6 4.8 0.00 0.00 0.00 59 1008.4
20260831215204 21 330 1.6 3.2 0.00 0.00 0.00 59 1008.5
20260831214704 21 331 1.6 4.8 0.00 0.00 0.00 58 1008.6
20260831214204 21 302 1.6 3.2 0.00 0.00 0.00 58 1008.7
20260831213204 21 321 1.6 3.2 0.00 0.00 0.00 59 1008.8
20260831212204 21 166 1.6 8.0 0.00 0.00 0.00 61 1008.9
20260831210704 21 313 1.6 3.2 0.00 0.00 0.00 59 1009.2
20260831210204 21 302 1.6 4.8 0.00 0.00 0.00 59 1009.3
20260831205704 21 95 1.6 4.8 0.00 0.00 0.00 58 1009.2
20260831204704 22 325 1.6 3.2 0.00 0.00 0.00 59 1009.3
20260831204204 22 176 1.6 4.8 0.00 0.00 0.00 58 1009.4
20260831203705 22 311 0.0 4.8 0.00 0.00 0.00 58 1009.4
20260831202704 22 298 1.6 3.2 0.00 0.00 0.00 58 1009.5
20260831202204 22 316 1.6 3.2 0.00 0.00 0.00 58 1009.6
20260831201204 22 328 1.6 3.2 0.00 0.00 0.00 59 1009.7
20260831194204 22 347 1.6 3.2 0.00 0.00 0.00 59 1010.1
20260831193704 22 280 1.6 4.8 0.00 0.00 0.00 60 1010.1
20260831193204 22 321 1.6 3.2 0.00 0.00 0.00 61 1010.2
20260831192205 21 325 1.6 3.2 0.00 0.00 0.00 62 1010.4
20260831191204 20 307 1.6 4.8 0.00 0.00 0.00 64 1010.6
20260831185704 20 319 1.6 3.2 0.00 0.00 0.00 66 1010.7
20260831185204 20 190 1.6 3.2 0.00 0.00 0.00 66 1010.7
20260831184204 18 244 0.0 3.2 0.00 0.00 0.00 69 1010.9
20260831181704 17 301 1.6 3.2 0.00 0.00 0.00 76 1011.2
20260831181204 17 208 0.0 3.2 0.00 0.00 0.00 75 1011.3
20260831180204 17 329 1.6 3.2 0.00 0.00 0.00 77 1011.3
20260831175704 17 101 0.0 3.2 0.00 0.00 0.00 77 1011.5
20260831175204 17 333 0.0 3.2 0.00 0.00 0.00 78 1011.5
20260831174204 16 26 0.0 3.2 0.00 0.00 0.00 78 1011.7
20260831173704 16 242 0.0 3.2 0.00 0.00 0.00 81 1011.7
20260831173204 16 286 1.6 3.2 0.00 0.00 0.00 80 1011.7
20260831171204 16 352 1.6 3.2 0.00 0.00 0.00 82 1011.8
20260831170704 16 239 1.6 3.2 0.00 0.00 0.00 83 1011.8
20260831170204 15 292 1.6 4.8 0.00 0.00 0.00 83 1011.9
20260831165704 15 265 1.6 4.8 0.00 0.00 0.00 84 1011.9
20260831165204 15 331 0.0 3.2 0.00 0.00 0.00 86 1011.9
20260831164204 15 278 0.0 3.2 0.00 0.00 0.00 86 1012.0
20260831163704 15 79 0.0 3.2 0.00 0.00 0.00 87 1012.0
20260831162204 14 101 1.6 3.2 0.00 0.00 0.00 88 1012.2